Change the Weather History Date:

Wednesday, February 20, 2013

  Actual Average Record
Temperature  
Mean Temperature 46 °F -  
Max Temperature 63 °F 61 °F 64 °F (1997)
Min Temperature 30 °F 38 °F 28 °F (2015)
Degree Days  
Heating Degree Days 18    
Moisture  
Dew Point 37 °F    
Average Humidity 86    
Maximum Humidity 100    
Minimum Humidity 34    
Precipitation  
Precipitation 0.00 in 0.07 in - ()
Sea Level Pressure  
Sea Level Pressure 29.89 in    
Wind  
Wind Speed 1 mph ()    
Max Wind Speed 8 mph    
Max Gust Speed -    
Visibility 2.9 miles    
Events Fog    
Averages and records for this station are not official NWS values.
T = Trace of Precipitation, MM = Missing Value Source: Averaged Metar Reports

Daily Weather History Graph

Daily Weather History Graph

Search for Another Location

Airport or City:

Trip Planner

Search our weather history database for the weather conditions in past years. The results will help you decide how hot, cold, wet, or windy it might be!

Date:

Astronomy

Feb. 20, 2013 Rise Set
Actual Time 7:37 AM CET 6:28 PM CET
Civil Twilight 7:09 AM CET 6:56 PM CET
Nautical Twilight 6:36 AM CET 7:29 PM CET
Astronomical Twilight 6:04 AM CET 8:01 PM CET
Moon 1:33 PM CET (2/20) 3:48 AM CET (2/20)
Length of Visible Light 11h 47m
Length of Day
10h 50m
Waxing Gibbous, 74% of the Moon is Illuminated
Feb 20
Waxing Gibbous
Feb 25
Full
Mar 4
Last Quarter
Mar 11
New
Mar 19
First Quarter

Hourly Weather History & Observations

Time (CET) Temp. Dew Point Humidity Pressure Visibility Wind Dir Wind Speed Gust Speed Precip Events Conditions
12:00 AM 35.6 °F 35.6 °F 100% 29.95 in - Calm Calm - N/A   Clear
12:30 AM 33.8 °F 33.8 °F 100% 29.95 in - Calm Calm - N/A   Clear
1:30 AM 33.8 °F 33.8 °F 100% 29.92 in 6.2 mi Calm Calm - N/A   Partly Cloudy
2:00 AM 33.8 °F 33.8 °F 100% 29.92 in 6.2 mi Variable 1.2 mph - N/A   Partly Cloudy
2:30 AM 33.8 °F 33.8 °F 100% 29.92 in 6.2 mi Calm Calm - N/A   Partly Cloudy
3:00 AM 33.8 °F 33.8 °F 100% 29.92 in 6.2 mi Calm Calm - N/A   Partly Cloudy
4:00 AM 32.0 °F 32.0 °F 100% 29.92 in 6.2 mi NNE 2.3 mph - N/A   Partly Cloudy
4:48 AM 32.0 °F 32.0 °F 100% 29.92 in 4.3 mi Variable 1.2 mph - N/A   Partly Cloudy
5:00 AM 32.0 °F 32.0 °F 100% 29.92 in 4.3 mi Calm Calm - N/A   Partly Cloudy
5:16 AM 32.0 °F 32.0 °F 100% 29.92 in 4.3 mi Calm Calm - N/A Fog Patches of Fog
5:30 AM 32.0 °F 32.0 °F 100% 29.92 in 1.2 mi Calm Calm - N/A Fog Patches of Fog
6:00 AM 30.2 °F 30.2 °F 100% 29.92 in 1.2 mi Calm Calm - N/A Fog Patches of Fog
6:01 AM 30.2 °F 30.2 °F 100% 29.92 in 0.3 mi Calm Calm - N/A Fog Patches of Fog
6:30 AM 30.2 °F 30.2 °F 100% 29.92 in 0.3 mi Calm Calm - N/A Fog Patches of Fog
6:33 AM 30.2 °F 30.2 °F 100% 29.92 in 0.1 mi Calm Calm - N/A Fog Patches of Fog
7:00 AM 32 °F 31 °F 92% 29.92 in - Calm Calm - -  
7:00 AM 30.2 °F 30.2 °F 100% 29.89 in 0.2 mi Calm Calm - N/A Fog Patches of Fog
7:30 AM 30.2 °F 30.2 °F 100% 29.92 in 0.3 mi Calm Calm - N/A Fog Patches of Fog
7:40 AM 32.0 °F 32.0 °F 100% 29.92 in 0.2 mi Calm Calm - N/A Fog Patches of Fog
8:00 AM 32.0 °F 32.0 °F 100% 29.92 in 0.2 mi Calm Calm - N/A Fog Patches of Fog
8:30 AM 30.2 °F 30.2 °F 100% 29.92 in 0.1 mi West 1.2 mph - N/A Fog Light Freezing Fog
9:00 AM 33.8 °F 33.8 °F 100% 29.92 in 0.1 mi Calm Calm - N/A Fog Fog
10:00 AM 39.2 °F 39.2 °F 100% 29.92 in 0.2 mi Calm Calm - N/A Fog Fog
10:19 AM 42.8 °F 42.8 °F 100% 29.92 in 0.7 mi Calm Calm - N/A   Scattered Clouds
10:30 AM 44.6 °F 44.6 °F 100% 29.92 in 1.2 mi Calm Calm - N/A   Partly Cloudy
11:00 AM 46.4 °F 41.0 °F 81% 29.92 in 3.7 mi Calm Calm - N/A   Partly Cloudy
11:30 AM 48.2 °F 41.0 °F 76% 29.92 in - Variable 1.2 mph - N/A   Clear
12:00 PM 51.8 °F 41.0 °F 67% 29.92 in - Calm Calm - N/A   Clear
12:30 PM 53.6 °F 39.2 °F 58% 29.89 in - Calm Calm - N/A   Clear
1:00 PM 60 °F 39 °F 34% 29.87 in 9 mi South 3.5 mph - -   Clear
1:00 PM 55.4 °F 37.4 °F 51% 29.89 in - Variable 2.3 mph - N/A   Clear
1:30 PM 57.2 °F 37.4 °F 48% 29.86 in - Variable 2.3 mph - N/A   Clear
2:00 PM 59.0 °F 37.4 °F 45% 29.86 in - Variable 2.3 mph - N/A   Clear
3:00 PM 59.0 °F 39.2 °F 48% 29.83 in - SSW 5.8 mph - N/A   Clear
4:00 PM 59.0 °F 41.0 °F 51% 29.83 in - South 6.9 mph - N/A   Clear
4:30 PM 59.0 °F 37.4 °F 45% 29.83 in - South 6.9 mph - N/A   Clear
5:00 PM 57.2 °F 41.0 °F 55% 29.83 in - South 8.1 mph - N/A   Clear
5:30 PM 55.4 °F 41.0 °F 58% 29.83 in - South 6.9 mph - N/A   Clear
6:00 PM 53.6 °F 41.0 °F 62% 29.83 in - South 6.9 mph - N/A   Clear
6:30 PM 51.8 °F 42.8 °F 71% 29.83 in - SSW 5.8 mph - N/A   Clear
7:00 PM 51 °F 43 °F 66% 29.85 in 9 mi South 5.8 mph - -  
7:00 PM 48.2 °F 42.8 °F 82% 29.86 in - South 4.6 mph - N/A   Clear
7:30 PM 48.2 °F 42.8 °F 82% 29.86 in - Variable 2.3 mph - N/A   Clear
8:00 PM 46.4 °F 42.8 °F 87% 29.86 in - South 2.3 mph - N/A   Clear
8:30 PM 44.6 °F 41.0 °F 87% 29.86 in - Calm Calm - N/A   Clear
9:00 PM 42.8 °F 41.0 °F 93% 29.86 in - Calm Calm - N/A   Clear
9:30 PM 41.0 °F 41.0 °F 100% 29.89 in - Calm Calm - N/A   Clear
10:00 PM 41.0 °F 41.0 °F 100% 29.89 in - Calm Calm - N/A   Clear
10:30 PM 39.2 °F 39.2 °F 100% 29.89 in - Calm Calm - N/A   Clear
10:53 PM 41.0 °F 41.0 °F 100% 29.86 in 4.3 mi Calm Calm - N/A   Unknown
11:00 PM 39.2 °F 39.2 °F 100% 29.86 in 3.7 mi Calm Calm - N/A   Unknown
11:05 PM 39.2 °F 39.2 °F 100% 29.86 in 1.2 mi Calm Calm - N/A Fog Patches of Fog
11:30 PM 39.2 °F 39.2 °F 100% 29.86 in 3.1 mi Calm Calm - N/A   Mist